Regional Weather Roundup
Issued by NWS

Home | Current Version | Previous Version | Text Only | Print | Product List | Glossary On
Versions: 1 2 3 4 5 6 7 8 9 10 11 12 13 14 15 16 17 18 19 20 21 22 23 24 25 26 27 28 29 30 31 32 33 34 35 36 37 38 39 40 41 42 43 44 45 46 47 48 49 50
000
ASUS43 KLMK 231602
RWRKY
KENTUCKY REGIONAL WEATHER ROUNDUP
NATIONAL WEATHER SERVICE LOUISVILLE KY
1200 PM EDT SAT AUG 23 2014

NOTE "FAIR" INDICATES FEW OR NO CLOUDS BELOW 12,000 FEET
WITH NO SIGNIFICANT WEATHER AND/OR OBSTRUCTIONS TO VISIBILITY.

KYZ001>023-026-027-061>063-070>075-231700-
WESTERN AND SOUTH CENTRAL KENTUCKY

CITY           SKY/WX    TMP DP  RH WIND       PRES   REMARKS
PADUCAH        MOSUNNY   86  77  74 SW5       29.99S HX  97
HENDERSON      SUNNY     88  77  70 SW5       29.96F HX 100
OWENSBORO      SUNNY     87  78  74 SW6       29.99S HX  99
HOPKINSVILLE   PTSUNNY   84  80  86 SW8       30.01S HX  97
BOWLING GREEN  MOSUNNY   86  73  65 VRB5      30.02S HX  93
GLASGOW        SUNNY     85  72  64 W3        30.03S HX  91
$$

KYZ024-025-028>034-038-045-046-053-231700-
NORTH CENTRAL KENTUCKY

CITY           SKY/WX    TMP DP  RH WIND       PRES   REMARKS
LOUISVILLE/SDF MOSUNNY   85  73  67 SE3       30.01R HX  91
LOUISVILLE/LOU SUNNY     85  73  67 CALM      30.01S HX  91
FORT KNOX      PTSUNNY   84  70  64 E6        30.01S
$$

KYZ035>037-039>044-047>052-055>060-089>105-231700-
NORTHEAST KENTUCKY

CITY           SKY/WX    TMP DP  RH WIND       PRES   REMARKS
LEXINGTON      PTSUNNY   86  74  67 CALM      30.04S HX  94
COVINGTON      PTSUNNY   84  71  65 CALM      30.03S
FRANKFORT      SUNNY     84  74  71 CALM      30.02S HX  91
$$

KYZ054-064>069-076>088-106>120-231700-
SOUTHEAST KENTUCKY

CITY           SKY/WX    TMP DP  RH WIND       PRES   REMARKS
JACKSON        PTSUNNY   78  73  84 CALM      30.07S
LONDON         PTSUNNY   84  71  65 CALM      30.06S
SOMERSET       MOSUNNY   82  70  65 CALM      30.06S
MIDDLESBORO    PTSUNNY   83  72  68 CALM      30.06S
MONTICELLO     SUNNY     86  73  64 CALM      30.06S HX  93
$$




USA.gov is the U.S. government's official web portal to all federal, state and local government web resources and services.